Location: São Paulo
(23.5507°S, 46.6334°W)
Time: 06:30:04
(UTC-03:00)

Vanguard 2 Rocket - All Passes

Search period start: 19 February 2026 00:00
Search period end: 01 March 2026 00:00
Orbit: 553 x 3286 km, 32.9° (Epoch: 18 February)

Date Brightness Start Highest point End Pass type
(mag) Time Alt. Az. Time Alt. Az. Time Alt. Az.
19 Feb - 00:05:09 10° WNW 00:09:20 68° SSW 00:15:29 10° ESE night (unlit)
19 Feb - 02:17:39 10° WSW 02:23:09 41° S 02:32:18 10° ESE visible
19 Feb - 04:29:51 10° WSW 04:38:06 62° SSE 04:52:53 10° E visible
19 Feb - 06:42:26 10° WSW 06:53:56 71° NNW 07:12:35 10° NE daylight
19 Feb - 08:57:58 10° W 09:11:02 33° NW 09:27:27 10° NNE daylight
19 Feb - 23:00:48 10° NW 23:04:41 67° NNE 23:09:35 10° ESE night (unlit)
20 Feb - 01:13:06 10° WSW 01:17:40 40° S 01:24:46 10° ESE visible
20 Feb - 03:25:25 10° WSW 03:32:06 49° SSE 03:43:51 10° E visible
20 Feb - 05:37:30 10° WSW 05:47:13 89° NNW 06:04:21 10° ENE daylight
20 Feb - 07:51:17 10° W 08:03:38 44° NNW 08:21:18 10° NNE daylight
20 Feb - 10:12:28 10° WNW 10:21:21 15° NW 10:31:02 10° N daylight
20 Feb - 21:56:42 10° NNW 22:00:15 30° NNE 22:03:57 10° E night (unlit)
21 Feb - 00:08:29 10° W 00:12:31 46° SSW 00:18:13 10° ESE night (unlit)
21 Feb - 02:21:02 10° WSW 02:26:25 40° S 02:35:19 10° ESE visible
21 Feb - 04:32:55 10° WSW 04:40:59 72° SSE 04:55:39 10° ENE visible
21 Feb - 06:45:36 10° WSW 06:56:34 57° NNW 07:14:13 10° NE daylight
21 Feb - 09:02:28 10° W 09:13:43 24° NW 09:27:30 10° N daylight
21 Feb - 20:53:14 10° N 20:55:39 15° NNE 20:57:57 10° ENE visible
21 Feb - 23:03:48 10° WNW 23:07:43 72° SSW 23:12:30 10° ESE night (unlit)
22 Feb - 01:16:36 10° WSW 01:20:59 34° S 01:27:38 10° ESE visible
22 Feb - 03:28:34 10° WSW 03:35:09 55° SSE 03:46:52 10° E visible
22 Feb - 05:40:34 10° WSW 05:49:56 73° NNW 06:06:26 10° NE daylight
22 Feb - 07:55:04 10° W 08:06:20 33° NNW 08:22:00 10° NNE daylight
22 Feb - 21:59:10 10° NW 22:03:11 57° NNE 22:07:15 10° ESE night (unlit)
23 Feb - 00:11:57 10° WSW 00:15:48 35° S 00:21:00 10° ESE night (unlit)
23 Feb - 02:24:18 10° WSW 02:29:37 41° SSE 02:38:24 10° E visible
23 Feb - 04:35:58 10° WSW 04:43:48 87° SSE 04:58:10 10° ENE visible
23 Feb - 06:49:00 10° W 06:59:17 43° NNW 07:15:26 10° NNE daylight
23 Feb - 09:08:22 10° WNW 09:16:39 16° NNW 09:26:18 10° N daylight
23 Feb - 20:54:41 10° NNW 20:58:39 28° NNE 21:02:04 10° E visible
23 Feb - 23:07:04 10° W 23:10:52 45° SSW 23:15:19 10° ESE night (unlit)
24 Feb - 01:19:59 10° WSW 01:24:18 32° S 01:30:40 10° ESE visible
24 Feb - 03:31:38 10° WSW 03:38:06 65° SSE 03:49:45 10° ENE visible
24 Feb - 05:43:45 10° WSW 05:52:42 57° NNW 06:08:09 10° NE daylight
24 Feb - 07:59:31 10° WNW 08:09:12 23° NNW 08:22:01 10° NNE daylight
24 Feb - 19:50:37 10° N 19:53:49 16° NNE 19:56:31 10° ENE visible
24 Feb - 22:02:02 10° WNW 22:06:13 80° SSW 22:10:17 10° ESE night (unlit)
25 Feb - 00:15:26 10° WSW 00:19:06 29° S 00:23:54 10° ESE night (unlit)
25 Feb - 02:27:27 10° SW 02:32:44 46° SSE 02:41:31 10° E visible
25 Feb - 04:39:03 10° WSW 04:46:37 75° NNW 05:00:23 10° NE visible
25 Feb - 06:52:48 10° W 07:02:10 32° NNW 07:16:09 10° NNE daylight
25 Feb - 20:56:56 10° NW 21:01:39 52° NNE 21:05:30 10° ESE visible
25 Feb - 23:10:29 10° WSW 23:14:04 32° SSW 23:18:09 10° SE night (unlit)
26 Feb - 01:23:16 10° SW 01:27:32 33° SSE 01:33:50 10° ESE visible
26 Feb - 03:34:42 10° WSW 03:41:00 81° SSE 03:52:26 10° ENE visible
26 Feb - 05:47:11 10° W 05:55:35 42° NNW 06:09:27 10° NE daylight
26 Feb - 08:05:20 10° WNW 08:12:19 15° NNW 08:20:45 10° N daylight
26 Feb - 19:51:54 10° NNW 19:56:55 29° NNE 20:00:40 10° E visible
26 Feb - 22:05:10 10° W 22:09:17 48° SSW 22:13:12 10° SE visible
27 Feb - 00:18:52 10° SW 00:22:24 26° S 00:26:56 10° ESE night (unlit)
27 Feb - 02:30:32 10° WSW 02:35:45 56° SSE 02:44:33 10° E visible
27 Feb - 04:42:16 10° WSW 04:49:29 56° NNW 05:02:16 10° NE visible
27 Feb - 06:57:15 10° WNW 07:05:12 22° NNW 07:16:09 10° NNE daylight
27 Feb - 18:47:04 10° NNW 18:51:50 19° NNE 18:55:26 10° ENE daylight
27 Feb - 20:59:36 10° WNW 21:04:40 89° SSW 21:08:39 10° ESE visible
27 Feb - 23:13:58 10° WSW 23:17:20 26° S 23:21:04 10° SE night (unlit)
28 Feb - 01:26:24 10° SW 01:30:41 37° SSE 01:37:02 10° E visible
28 Feb - 03:37:47 10° WSW 03:43:53 77° NNW 03:54:50 10° ENE visible
28 Feb - 05:51:00 10° W 05:58:35 29° NNW 06:10:14 10° NNE daylight
28 Feb - 17:42:56 10° N 17:46:20 13° NNE 17:49:11 10° NE daylight
28 Feb - 19:53:55 10° NW 20:00:00 51° NNE 20:04:10 10° ESE visible
28 Feb - 22:08:29 10° W 22:12:25 33° SSW 22:16:05 10° SE visible
